Storm Lake, IA

5:17 AM CST on February 10, 2016 (GMT -0600)
Storm Lake Municipal

Weather History for KSLB - January, 2014

Change the Weather History Date:

Saturday, January 25, 2014

  Actual Average Record
Temperature  
Mean Temperature 24 °F -  
Max Temperature 35 °F 26 °F 60 °F (2002)
Min Temperature 14 °F 11 °F -13 °F (1997)
Degree Days  
Heating Degree Days 40    
Moisture  
Dew Point 10 °F    
Average Humidity 60    
Maximum Humidity 93    
Minimum Humidity 38    
Precipitation  
Precipitation 0.00 in - - ()
Sea Level Pressure  
Sea Level Pressure 29.80 in    
Wind  
Wind Speed 19 mph (NW)    
Max Wind Speed 29 mph    
Max Gust Speed 44 mph    
Visibility 10 miles    
Events Rain , Snow    
Averages and records for this station are not official NWS values.
T = Trace of Precipitation, MM = Missing Value Source: NWS Daily Summary

Daily Weather History Graph

Daily Weather History Graph

Search for Another Location

Airport or City:

Trip Planner

Search our weather history database for the weather conditions in past years. The results will help you decide how hot, cold, wet, or windy it might be!

Date:

Astronomy

Jan. 25, 2014 Rise Set
Actual Time 7:41 AM CST 5:25 PM CST
Civil Twilight 7:11 AM CST 5:55 PM CST
Nautical Twilight 6:37 AM CST 6:30 PM CST
Astronomical Twilight 6:03 AM CST 7:03 PM CST
Moon 2:14 AM CST (1/25) 12:26 PM CST (1/25)
Length of Visible Light 10h 44m
Length of Day
9h 43m
Waning Crescent, 34% of the Moon is Illuminated
Jan 25
Waning Crescent
Jan 30
New
Feb 6
First Quarter
Feb 14
Full
Feb 22
Last Quarter

Hourly Weather History & Observations

Time (CST) Temp. Windchill Dew Point Humidity Pressure Visibility Wind Dir Wind Speed Gust Speed Precip Events Conditions
12:15 AM 35.6 °F 25.2 °F 32.0 °F 87% 29.69 in 10.0 mi NW 18.4 mph 25.3 mph N/A   Overcast
12:35 AM 35.6 °F 25.2 °F 32.0 °F 87% 29.69 in 10.0 mi NW 18.4 mph 25.3 mph N/A   Overcast
12:55 AM 33.8 °F 22.5 °F 32.0 °F 93% 29.69 in 10.0 mi NW 19.6 mph 26.5 mph N/A   Mostly Cloudy
1:15 AM 33.8 °F 22.5 °F 32.0 °F 93% 29.70 in 10.0 mi NW 19.6 mph 26.5 mph N/A   Mostly Cloudy
1:35 AM 35.6 °F 24.2 °F 30.2 °F 81% 29.71 in 10.0 mi NW 21.9 mph 28.8 mph N/A   Mostly Cloudy
1:55 AM 33.8 °F 22.5 °F 30.2 °F 87% 29.71 in 10.0 mi NW 19.6 mph 31.1 mph N/A   Overcast
2:15 AM 33.8 °F 22.2 °F 30.2 °F 87% 29.73 in 10.0 mi NW 20.7 mph 26.5 mph N/A   Overcast
2:35 AM 33.8 °F 23.2 °F 30.2 °F 87% 29.73 in 10.0 mi NNW 17.3 mph 27.6 mph N/A   Overcast
2:55 AM 28.4 °F 13.8 °F 24.8 °F 86% 29.74 in 10.0 mi North 25.3 mph - N/A   Overcast
3:15 AM 26.6 °F 13.4 °F 23.0 °F 86% 29.77 in 10.0 mi North 18.4 mph 27.6 mph N/A   Overcast
3:35 AM 26.6 °F 14.3 °F 21.2 °F 80% 29.77 in 9.0 mi North 16.1 mph 27.6 mph N/A   Overcast
3:55 AM 24.8 °F 11.5 °F 21.2 °F 86% 29.79 in 8.0 mi North 17.3 mph 25.3 mph N/A Rain Light Freezing Rain
4:15 AM 24.8 °F 10.7 °F 19.4 °F 80% 29.80 in 10.0 mi NNW 19.6 mph 27.6 mph N/A Snow Light Snow
4:35 AM 23.0 °F 6.0 °F 15.8 °F 74% 29.81 in 4.0 mi North 27.6 mph 34.5 mph N/A   Overcast
4:55 AM 21.2 °F 4.5 °F 10.4 °F 63% 29.83 in 4.0 mi North 24.2 mph 39.1 mph N/A Rain Light Freezing Rain
5:15 AM 21.2 °F 5.2 °F 10.4 °F 63% 29.83 in 9.0 mi North 21.9 mph - N/A   Mostly Cloudy
5:35 AM 19.4 °F 5.0 °F 8.6 °F 63% 29.84 in 10.0 mi North 16.1 mph - N/A   Overcast
5:55 AM 19.4 °F 3.2 °F 6.8 °F 58% 29.86 in 10.0 mi North 20.7 mph 28.8 mph N/A   Overcast
6:15 AM 15.8 °F 0.9 °F 6.8 °F 68% 29.87 in 10.0 mi North 15.0 mph - N/A   Partly Cloudy
6:35 AM 17.6 °F 1.3 °F 8.6 °F 68% 29.88 in 10.0 mi NNW 19.6 mph 26.5 mph N/A   Clear
6:55 AM 15.8 °F -1.5 °F 8.6 °F 73% 29.89 in 10.0 mi NNW 20.7 mph 26.5 mph N/A   Clear
7:15 AM 15.8 °F -0.6 °F 8.6 °F 73% 29.90 in 10.0 mi NNW 18.4 mph 25.3 mph N/A   Clear
7:35 AM 14.0 °F -3.4 °F 8.6 °F 79% 29.91 in 10.0 mi NNW 19.6 mph - N/A   Clear
7:55 AM 14.0 °F -3.9 °F 6.8 °F 73% 29.93 in 10.0 mi NNW 20.7 mph 26.5 mph N/A   Clear
8:15 AM 14.0 °F -3.0 °F 6.8 °F 73% 29.94 in 10.0 mi North 18.4 mph 25.3 mph N/A   Clear
8:35 AM 14.0 °F -2.5 °F 5.0 °F 67% 29.95 in 10.0 mi North 17.3 mph 25.3 mph N/A   Clear
8:55 AM 14.0 °F -4.7 °F 5.0 °F 67% 29.95 in 10.0 mi NNW 23.0 mph 31.1 mph N/A   Clear
9:15 AM 15.8 °F -4.1 °F 1.4 °F 53% 29.96 in 10.0 mi North 28.8 mph 35.7 mph N/A   Clear
9:35 AM 14.0 °F -6.5 °F -4.0 °F 45% 29.97 in 10.0 mi NNW 28.8 mph 43.7 mph N/A   Clear
9:55 AM 14.0 °F -5.8 °F -4.0 °F 45% 29.98 in 10.0 mi NNW 26.5 mph 35.7 mph N/A   Clear
10:15 AM 14.0 °F -3.9 °F -2.2 °F 49% 30.00 in 10.0 mi NNW 20.7 mph 32.2 mph N/A   Clear
10:35 AM 15.8 °F -3.4 °F -2.2 °F 45% 30.00 in 10.0 mi NNW 26.5 mph 33.4 mph N/A   Clear
10:55 AM 15.8 °F -3.1 °F -0.4 °F 49% 30.00 in 10.0 mi NNW 25.3 mph 32.2 mph N/A   Clear
11:15 AM 15.8 °F -2.3 °F -2.2 °F 45% 30.01 in 10.0 mi NW 23.0 mph 32.2 mph N/A   Clear
11:35 AM 17.6 °F 0.5 °F -2.2 °F 42% 30.00 in 10.0 mi NNW 21.9 mph 29.9 mph N/A   Clear
11:55 AM 15.8 °F -1.9 °F -2.2 °F 45% 29.98 in 10.0 mi NNW 21.9 mph 27.6 mph N/A   Clear
12:15 PM 17.6 °F 2.2 °F -2.2 °F 42% 29.99 in 10.0 mi NNW 17.3 mph 25.3 mph N/A   Clear
12:35 PM 17.6 °F 0.1 °F -4.0 °F 38% 29.99 in 10.0 mi NNW 23.0 mph 28.8 mph N/A   Clear
12:55 PM 19.4 °F 4.5 °F -0.4 °F 42% 29.99 in 10.0 mi NW 17.3 mph 24.2 mph N/A   Clear
1:15 PM 19.4 °F 4.1 °F -0.4 °F 42% 29.98 in 10.0 mi NW 18.4 mph 27.6 mph N/A   Clear
1:35 PM 19.4 °F 5.0 °F -0.4 °F 42% 29.96 in 10.0 mi NW 16.1 mph 25.3 mph N/A   Clear
1:55 PM 19.4 °F 4.1 °F 1.4 °F 46% 29.95 in 10.0 mi WNW 18.4 mph - N/A   Clear
2:15 PM 21.2 °F 6.8 °F 1.4 °F 42% 29.94 in 10.0 mi NW 17.3 mph - N/A   Clear
2:35 PM 21.2 °F 6.4 °F 3.2 °F 46% 29.94 in 10.0 mi WNW 18.4 mph - N/A   Clear
2:55 PM 21.2 °F 6.0 °F 5.0 °F 50% 29.93 in 10.0 mi WNW 19.6 mph - N/A   Clear
3:15 PM 21.2 °F 8.9 °F 5.0 °F 50% 29.91 in 10.0 mi WNW 12.7 mph 23.0 mph N/A   Clear
3:35 PM 23.0 °F 11.1 °F 5.0 °F 46% 29.90 in 10.0 mi WNW 12.7 mph - N/A   Clear
3:55 PM 23.0 °F 11.7 °F 3.2 °F 43% 29.89 in 10.0 mi West 11.5 mph - N/A   Clear
4:15 PM 23.0 °F 11.7 °F 5.0 °F 46% 29.88 in 10.0 mi West 11.5 mph - N/A   Clear
4:35 PM 23.0 °F 11.1 °F 6.8 °F 50% 29.87 in 10.0 mi West 12.7 mph - N/A   Clear
4:55 PM 23.0 °F 13.9 °F 6.8 °F 50% 29.87 in 10.0 mi West 8.1 mph - N/A   Clear
5:15 PM 23.0 °F 14.7 °F 6.8 °F 50% 29.85 in 10.0 mi West 6.9 mph - N/A   Mostly Cloudy
5:35 PM 23.0 °F 14.7 °F 6.8 °F 50% 29.85 in 10.0 mi WSW 6.9 mph - N/A   Overcast
5:55 PM 23.0 °F 15.8 °F 6.8 °F 50% 29.84 in - SW 5.8 mph - N/A   Overcast
6:15 PM 23.0 °F 15.8 °F 6.8 °F 50% 29.82 in 10.0 mi SSW 5.8 mph - N/A   Overcast
6:35 PM 23.0 °F 13.9 °F 8.6 °F 54% 29.80 in 10.0 mi South 8.1 mph - N/A   Overcast
6:55 PM 23.0 °F 13.9 °F 10.4 °F 59% 29.77 in 6.0 mi South 8.1 mph - N/A   Haze
7:15 PM 23.0 °F 13.1 °F 12.2 °F 63% 29.74 in 10.0 mi South 9.2 mph - N/A   Overcast
7:35 PM 23.0 °F 12.4 °F 10.4 °F 59% 29.70 in 10.0 mi SSE 10.4 mph - N/A   Overcast
7:55 PM 24.8 °F 14.0 °F 10.4 °F 54% 29.69 in 10.0 mi SSE 11.5 mph - N/A   Overcast
8:15 PM 24.8 °F 11.5 °F 8.6 °F 50% 29.67 in 10.0 mi South 17.3 mph - N/A   Overcast
8:35 PM 24.8 °F 11.5 °F 8.6 °F 50% 29.64 in 10.0 mi South 17.3 mph - N/A   Overcast
8:55 PM 24.8 °F 11.1 °F 8.6 °F 50% 29.60 in 10.0 mi South 18.4 mph - N/A   Overcast
9:15 PM 24.8 °F 11.5 °F 8.6 °F 50% 29.57 in 10.0 mi South 17.3 mph - N/A   Overcast
9:35 PM 26.6 °F 13.1 °F 10.4 °F 51% 29.54 in 10.0 mi South 19.6 mph - N/A   Overcast
9:55 PM 26.6 °F 12.7 °F 10.4 °F 51% 29.51 in 10.0 mi South 20.7 mph - N/A   Overcast
10:15 PM 26.6 °F 12.4 °F 12.2 °F 55% 29.47 in 10.0 mi South 21.9 mph - N/A   Overcast
10:35 PM 28.4 °F 14.7 °F 14.0 °F 55% 29.45 in 10.0 mi South 21.9 mph 28.8 mph N/A   Overcast
10:55 PM 30.2 °F 17.4 °F 17.6 °F 60% 29.43 in 10.0 mi SSW 20.7 mph 28.8 mph N/A   Overcast
11:15 PM 30.2 °F 16.8 °F 19.4 °F 64% 29.41 in 10.0 mi SSW 23.0 mph 32.2 mph N/A   Scattered Clouds
11:35 PM 32.0 °F 19.5 °F 21.2 °F 64% 29.40 in 10.0 mi SW 21.9 mph - N/A   Clear
11:55 PM 32.0 °F 19.5 °F 23.0 °F 69% 29.39 in 10.0 mi SW 21.9 mph 31.1 mph N/A   Scattered Clouds